Simultaneous Nadir Overpasses (SNOs) Predictions

Prediction of SNOs between NPP and TERRA Satellite Orbit:

Table of predicted SNOs for the next 14.0 days since TLE Epoch: 10/12/2024
Index Date (NPP) Time (NPP) Lat,Lon (NPP) SZA (NPP ) Date (TERRA) Time (TERRA) Lat,Lon (TERRA) SZA (TERRA ) Distance(km) Time Diff (sec)
1 10/13/2024 01:09:01 72.79, 154.39 80.65 10/13/2024 01:09:30 72.78, 154.48 80.64 3.24 29
2 10/13/2024 01:59:43 -72.69, -38.09 99.44 10/13/2024 01:58:54 -72.70, -38.02 99.43 2.50 49
3 10/15/2024 12:21:29 72.79, -13.72 81.56 10/15/2024 12:22:02 72.80, -13.66 81.57 2.54 33
4 10/15/2024 13:12:11 -72.69, 153.80 98.54 10/15/2024 13:11:27 -72.66, 153.75 98.56 3.32 44
5 10/17/2024 23:33:57 72.81, 178.11 82.49 10/17/2024 23:34:32 72.80, 178.19 82.47 2.54 35
6 10/18/2024 00:24:39 -72.71, -14.36 97.61 10/18/2024 00:23:56 -72.72, -14.31 97.60 1.78 43
7 10/20/2024 10:46:24 72.81, 10.00 83.37 10/20/2024 10:47:00 72.79, 10.01 83.35 1.92 36
8 10/20/2024 11:37:06 -72.71, 177.53 96.73 10/20/2024 11:36:24 -72.71, 177.51 96.73 0.82 42
9 10/22/2024 21:58:51 72.84,-158.16 84.27 10/22/2024 21:59:25 72.82,-158.08 84.25 3.17 34
10 10/22/2024 22:49:32 -72.74, 9.36 95.83 10/22/2024 22:48:48 -72.73, 9.41 95.84 1.55 44
11 10/25/2024 09:11:16 72.84, 33.73 85.12 10/25/2024 09:11:47 72.84, 33.81 85.11 2.79 31
12 10/25/2024 10:01:58 -72.74,-158.75 94.98 10/25/2024 10:01:11 -72.74,-158.71 94.97 1.27 47



Historial Predications of SNOs between NPP and TERRA
